DECAYED

COSMOS 2251 DEB, 33843 (Decayed)

Orbit data source: Space-Track

COSMOS 2251 DEB, 33843 was space debris in LEO originally from a launch on Wed, 16 Jun 1993 UTC launched from the Plesetsk Missile And Space Complex (PKMTR). The debris from Iridium 33, an American commercial communications satellite, has been tracked extensively since its accidental collision with the defunct Russian satellite Cosmos 2251 in 2009. This event, occurring at high speed in low Earth orbit (LEO), generated thousands of pieces of space debris, significantly increasing the risk of further collisions. The Iridium 33 debris cloud has impacted space traffic management and orbital debris mitigation strategies, making it a subject of ongoing study in space situational awareness.

Not visible in the next 10 days
Identifier
33843, 1993-036CL
Orbit
Decayed
Country
Flag of CISCIS
Related business
Manufacturer
Unknown
Mission
Decayed spacecraft
Bus & Motor
Unknown
Mass
Unknown
Launch date (UTC)
1993-06-16 (32 years ago)
Launch vehicle
Unknown
Launch site
Plesetsk Missile And Space Complex (PKMTR)
Object type
Payload
Rocket body
Debris
Shape & HBR
Unknown shape, 0.3 m
Radar Cross Section
Medium (>0.1 m² and <1 m²)

Expand to show TLE details & history
Last TLE update: 9 months ago

TLE from 9 months ago
0 COSMOS 2251 DEB
1 33843U 93036CL  25015.60869232  .25457845  19820-5  27207-2 0  9996
2 33843  73.9200 181.9797 0011587 352.0231   8.0840 16.37167285843724
Epoch: 2025-01-15T14:36Z
TLE epoch observation values (Epoch: 2025-01-15T14:36:31.016Z)
Latitude
-0.00003°
Longitude
-152.44813°
Altitude
168.674 km
Speed
7.81 km/s
True Right ascension
12h 07m 55s
True Declination
0° 00' 00"
Sunlit
Object was in full shadow at epoch
Visualization orbit readout
Latitude
Unknown
Longitude
Unknown
Altitude
Unknown
Speed
Unknown
Apparent Right ascension
Unknown
Apparent Declination
Unknown
Sunlit
N/A
Visualization observer readout
Local Sidereal Time
11:04:52
Azimuth
Unknown
Elevation
Unknown
Doppler factor
Unknown
Orbital elements
Apogee altitude
178.354 km
Perigee altitude
163.178 km
Semi-major axis
6,548.903 km
Eccentricity
0.00116
Inclination
73.92°
RAAN
181.9797°
Arg. of periapsis
352.0231°
True anomaly
8.1027°
Mean anomaly
8.084°
Eccentric anomaly
8.09335°
Mean motion
4.09534 °/min
Orbital period
87.9 mins
BSTAR
0.0027207
Loading maneuver chart data...
Computing Atmospheric mass density...

Documentation

Showing up to 5 results
|